Tracking 19854 objects as of 22-Sep-2019
HD Live streaming from Space Station
objects crossing your sky now

FENGYUN 1C DEB

Track FENGYUN 1C DEB now!
10-day predictions


NORAD ID: 35117
Int'l Code: 1999-025DKV
Perigee: 741.7 km
Apogee: 820.4 km
Inclination: 98.8 °
Period: 100.3 minutes
Semi major axis: 7152 km
RCS: 0.0112 m2 (small)
Launch date: May 10, 1999
Source: People's Republic of China (PRC)
Launch site: Taiyaun Space Center, China (TSC)

Note: This is SATELLITE DEBRIS
aabbcc
Your satellite tracking list
Your tracking list is empty




NASA's NSSDC Master Catalog

Two Line Element Set (TLE):
1 35117U 99025DKV 19263.04412245  .00001136  00000-0  40507-3 0  9995
2 35117  98.7671 339.2609 0055003 177.7514 306.4066 14.35349201566446
Source of the keplerian elements: AFSPC